This demonstration page uses our WeatherBlox Daily Observations layout. Learn more.

Left ArrowRight Arrow

Hourly Observations for April 26, 2020

Temp ( °F °C ) Dew Point ( °F °C ) Humidity (%) Winds ( mph kmh ) Pressure ( in mb ) Visibility ( mi km ) Precip ( " mm )
12:15 am 00:15 Clear 40 4.6 29 -1.6 64 64 N N/A 30.19 1022 10 16 N/A
12:35 am 00:35 Clear 45 7 31 -0.8 58 58 WSW 5 7 30.17 1022 10 16 N/A
12:55 am 00:55 Clear 43 6.2 29 -1.5 58 58 N N/A 30.18 1022 10 16 N/A
1:15 am 01:15 Clear 42 5.3 30 -1.2 63 63 N N/A 30.19 1022 10 16 N/A
1:35 am 01:35 Clear 39 3.7 29 -1.7 68 68 N N/A 30.20 1023 10 16 N/A
1:55 am 01:55 Clear 38 3.2 28 -2 69 69 N N/A 30.20 1023 10 16 N/A
2:15 am 02:15 Clear 38 3.3 29 -1.7 70 70 N N/A 30.20 1023 10 16 N/A
2:35 am 02:35 Clear 37 2.7 28 -2 71 71 N N/A 30.21 1023 10 16 N/A
2:55 am 02:55 Clear 36 2.2 28 -2.1 74 74 NNE 3 6 30.20 1023 10 16 N/A
3:15 am 03:15 Clear 35 1.8 28 -2.4 74 74 N N/A 30.21 1023 10 16 N/A
3:35 am 03:35 Clear 38 3.2 29 -1.7 71 71 N N/A 30.19 1023 10 16 N/A
3:55 am 03:55 Clear 37 3 28 -2.4 68 68 N N/A 30.20 1023 10 16 N/A
4:15 am 04:15 Clear 36 2.3 29 -1.7 75 75 N N/A 30.20 1023 10 16 N/A
4:35 am 04:35 Partly Cloudy 38 3.1 29 -1.5 72 72 N N/A 30.21 1023 10 16 N/A
4:55 am 04:55 Mostly Cloudy 38 3.5 31 -0.5 75 75 N N/A 30.20 1023 10 16 N/A
5:15 am 05:15 Partly Cloudy 38 3.1 30 -0.9 75 75 N N/A 30.20 1023 10 16 N/A
5:35 am 05:35 Partly Cloudy 37 2.8 31 -0.6 79 79 N N/A 30.20 1023 10 16 N/A
5:55 am 05:55 Mostly Cloudy 35 1.8 30 -1.2 81 81 N N/A 30.21 1023 10 16 N/A
6:15 am 06:15 Partly Cloudy 36 2.4 31 -0.7 80 80 N N/A 30.20 1023 10 16 N/A
6:35 am 06:35 Mostly Cloudy 38 3.3 32 -0.2 78 78 SSW 3 6 30.19 1022 10 16 N/A
6:55 am 06:55 Cloudy 40 4.5 32 -0.1 72 72 N N/A 30.19 1022 10 16 N/A
7:15 am 07:15 Cloudy 42 5.6 33 0.8 72 72 S 3 6 30.17 1022 10 16 N/A
7:35 am 07:35 Cloudy 45 7 32 0.1 62 62 SSE 3 6 30.16 1021 10 16 N/A
7:55 am 07:55 Mostly Cloudy 47 8.2 32 0.1 57 57 S 5 7 30.15 1021 10 16 N/A
8:15 am 08:15 Partly Cloudy 47 8.6 35 1.4 61 61 S 3 6 30.14 1020 10 16 N/A
8:35 am 08:35 Partly Cloudy 51 10.5 36 2 56 56 S 7 11 30.13 1020 10 16 N/A
8:55 am 08:55 Mostly Cloudy 55 12.8 33 0.4 43 43 S 7 11 30.11 1020 10 16 N/A
9:15 am 09:15 Mostly Cloudy 55 12.8 32 undefined 42 42 S 9 15 30.11 1020 10 16 N/A
9:35 am 09:35 Partly Cloudy 57 14 32 undefined 39 39 S 9 15 30.09 1019 10 16 N/A
9:55 am 09:55 Partly Cloudy 59 15.2 31 -0.4 35 35 S 14 22 30.07 1018 10 16 N/A
10:15 am 10:15 Partly Cloudy 60 15.7 30 -1.1 32 32 S 14 22 30.06 1018 10 16 N/A
10:35 am 10:35 Mostly Cloudy 60 15.7 30 -0.9 32 32 S 16 26 30.05 1018 10 16 N/A
10:55 am 10:55 Partly Cloudy 62 16.5 30 -1.1 30 30 S 17 28 30.04 1017 10 16 N/A
11:15 am 11:15 Partly Cloudy 64 18 31 -0.4 29 29 S 20 31 30.02 1017 10 16 N/A
11:35 am 11:35 Sunny 65 18.6 30 -1.3 26 26 SSE 21 33 30.01 1016 10 16 N/A
11:55 am 11:55 Sunny 67 19.2 31 -0.8 26 26 SSE 20 31 29.99 1016 10 16 N/A
12:15 pm 12:15 Sunny 68 20.2 31 -0.8 24 24 SSE 20 31 29.98 1015 10 16 N/A
12:35 pm 12:35 Sunny 69 20.3 31 -0.5 25 25 SSE 22 35 29.96 1015 10 16 N/A
12:55 pm 12:55 Sunny 70 20.9 33 0.5 26 26 SSE 18 30 29.94 1014 10 16 N/A
1:15 pm 13:15 Sunny 71 21.4 34 1.1 26 26 S 24 39 29.93 1013 10 16 N/A
1:35 pm 13:35 Sunny 71 21.8 34 1 25 25 S 21 33 29.91 1013 10 16 N/A
1:55 pm 13:55 Sunny 72 22.1 35 1.4 26 26 S 21 33 29.90 1013 10 16 N/A
2:15 pm 14:15 Sunny 73 23 35 1.9 25 25 S 25 41 29.88 1012 10 16 N/A
2:35 pm 14:35 Sunny 73 22.7 35 1.6 25 25 S 23 37 29.88 1012 10 16 N/A
2:55 pm 14:55 Sunny 73 22.6 36 2 26 26 S 21 33 29.88 1012 10 16 N/A
3:15 pm 15:15 Sunny 74 23.6 37 2.6 25 25 S 22 35 29.86 1011 10 16 N/A
3:35 pm 15:35 Sunny 75 24 37 3 25 25 S 18 30 29.84 1011 10 16 N/A
3:55 pm 15:55 Sunny 76 24.3 38 3.4 26 26 S 23 37 29.82 1010 10 16 N/A
4:15 pm 16:15 Sunny 76 24.2 39 3.8 27 27 S 18 30 29.81 1010 10 16 N/A
4:35 pm 16:35 Sunny 77 25 40 4.5 27 27 S 21 33 29.80 1009 10 16 N/A
4:55 pm 16:55 Sunny 77 25.1 41 4.8 27 27 S 22 35 29.79 1009 10 16 N/A
5:15 pm 17:15 Sunny 76 24.7 41 5 28 28 S 22 35 29.79 1009 10 16 N/A
5:35 pm 17:35 Sunny 77 25 42 5.4 28 28 S 20 31 29.78 1008 10 16 N/A
5:55 pm 17:55 Sunny 78 25.4 42 5.3 27 27 S 21 33 29.76 1008 10 16 N/A
6:15 pm 18:15 Sunny 78 25.3 42 5.6 28 28 S 17 28 29.76 1008 10 16 N/A
6:35 pm 18:35 Sunny 76 24.3 42 5.6 30 30 SSE 21 33 29.77 1008 10 16 N/A
6:55 pm 18:55 Sunny 75 23.9 42 5.7 31 31 SSE 25 41 29.77 1008 10 16 N/A
7:15 pm 19:15 Sunny 73 22.7 42 5.5 33 33 SSE 20 31 29.79 1009 10 16 N/A
7:35 pm 19:35 Sunny 72 22.2 42 5.7 34 34 SSE 17 28 29.79 1009 10 16 N/A
7:55 pm 19:55 Mostly Cloudy 71 21.8 42 5.8 35 35 SSE 16 26 29.80 1009 10 16 N/A
8:15 pm 20:15 Cloudy 71 21.5 42 5.7 36 36 SSE 15 24 29.82 1010 10 16 N/A
8:35 pm 20:35 Cloudy 71 21.4 42 5.6 36 36 SSE 20 31 29.83 1010 10 16 N/A
8:55 pm 20:55 Mostly Cloudy 69 20.3 43 5.9 39 39 SSE 15 24 29.84 1011 10 16 N/A
9:15 pm 21:15 Partly Cloudy 68 20 43 6.2 41 41 SSE 15 24 29.86 1011 10 16 N/A
9:35 pm 21:35 Mostly Cloudy 67 19.5 44 6.5 43 43 SSE 7 11 29.88 1012 10 16 N/A
9:55 pm 21:55 Partly Cloudy 66 18.9 44 6.6 45 45 SSE 7 11 29.89 1012 10 16 N/A
10:15 pm 22:15 Partly Cloudy 65 18.3 45 7.1 48 48 SSE 8 13 29.90 1013 10 16 N/A
10:35 pm 22:35 Partly Cloudy 64 17.8 45 7.2 50 50 SSE 8 13 29.91 1013 10 16 N/A
10:55 pm 22:55 Clear 65 18.5 46 7.8 50 50 SSW 13 20 29.90 1013 10 16 N/A
11:15 pm 23:15 Mostly Cloudy with Light Rain 66 18.8 47 8.4 51 51 SSW 16 26 29.89 1012 10 16 N/A
11:35 pm 23:35 Mostly Cloudy 65 18.2 47 8.6 54 54 SSW 17 28 29.88 1012 10 16 N/A
11:55 pm 23:55 Mostly Cloudy 65 18.1 47 8.3 53 53 SSW 8 13 29.87 1012 10 16 N/A

Powered by AerisWeather